Flag for Norway Weather past 2 weeks in Melhus, Norway

Now
25 °F

Passing clouds.


Feels Like: 20 °F
Forecast: 22 / 28 °F
Wind: 3 mph from Northwest

Location: Trondheim / Vaernes

Current Time: Feb 1, 2015 at 6:03:25 PM

Latest Report: Feb 1, 2015 at 5:20 PM


Visibility: N/A

Pressure: 29.24 "Hg

Humidity: 86%

Dew point: 21 °F

Location of MelhusLocation

Historic Weather in Melhus — Graph

°F

Melhus temperature yesterday

Maximum temperature yesterday: 36 °F (at 12:20 AM)
Minimum temperature yesterday: 25 °F (at 11:50 PM)
Average temperature yesterday: 31 °F

Past Weeks' High & Low Weather Summary

 TemperatureHumidityPressure
High43 °F (Jan 27, 8:20 PM)100% (Jan 28, 5:20 AM)30.30 "Hg (Jan 28, 5:20 AM)
Low12 °F (Jan 23, 8:20 AM)45% (Jan 25, 6:50 PM)28.38 "Hg (Jan 29, 12:50 PM)
Average32 °F68%29.55 "Hg
* Reported Jan 17 4:20 PM — Feb 1 4:50 PM, Melhus, Weather by CustomWeather, © 2014

Note: Actual official high and low records may vary slightly from our data, if they occured in-between our weather recording intervals... More about our weather records

Advertising

Melhus weather history for previous 24 hours

 ConditionsComfort  
Time TempWeatherWind HumidityBarometerVisibility
4:50 PM
Feb 1
25 °FPartly cloudy.5 mph86%29.24 "HgN/A
4:20 PM25 °FPartly cloudy.6 mph80%29.24 "HgN/A
3:50 PM25 °FScattered clouds.3 mph80%29.24 "HgN/A
3:20 PM27 °FPartly sunny.3 mph74%29.21 "HgN/A
2:50 PM27 °FLight snow. Scattered clouds.1 mph74%29.21 "HgN/A
2:20 PM27 °FLight snow. Broken clouds.5 mph74%29.21 "Hg4 mi
1:50 PM27 °FLight snow. Broken clouds.3 mph80%29.21 "Hg5 mi
1:20 PM27 °FScattered showers. Partly sunny.5 mph74%29.21 "HgN/A
12:50 PM27 °FScattered showers. Partly sunny.7 mph80%29.21 "HgN/A
12:20 PM27 °FLight snow. Partly sunny.6 mph80%29.21 "HgN/A
11:50 AM27 °FScattered showers. Partly sunny.12 mph74%29.21 "Hg5 mi
11:20 AM25 °FScattered showers. Partly sunny.7 mph93%29.21 "HgN/A
10:50 AM25 °FPartly sunny.2 mph93%29.21 "HgN/A
10:20 AM23 °FPartly sunny.2 mph93%29.21 "HgN/A
9:50 AM23 °FBroken clouds.2 mph93%29.21 "HgN/A
9:20 AM23 °FLight snow. Broken clouds.2 mph93%29.21 "Hg6 mi
8:50 AM23 °FLight snow. Partly cloudy.2 mph93%29.21 "Hg6 mi
8:20 AM25 °FLight snow. Partly cloudy.2 mph86%29.21 "Hg6 mi
7:50 AM25 °FLight snow. Partly cloudy.2 mph86%29.21 "Hg4 mi
7:20 AM23 °FLight snow. Partly cloudy.3 mph93%29.21 "HgN/A
6:50 AM23 °FSnow flurries. Partly cloudy.5 mph93%29.21 "Hg3 mi
6:20 AM23 °FSnow flurries. Passing clouds.3 mph86%29.21 "Hg3 mi
5:50 AM23 °FLight snow. Passing clouds.2 mph86%29.21 "HgN/A
4:50 AM23 °FClear.3 mph86%29.21 "Hg10 mi
2:50 AM23 °FPassing clouds.5 mph80%29.21 "HgN/A
1:50 AM21 °FClear.6 mph86%29.21 "Hg10 mi
12:50 AM23 °FClear.2 mph80%29.21 "Hg10 mi
11:50 PM
Jan 31
25 °FClear.7 mph74%29.21 "Hg10 mi
10:50 PM27 °FClear.7 mph74%29.21 "Hg10 mi
10:20 PM27 °FClear.7 mph74%29.21 "Hg10 mi
9:50 PM28 °FClear.6 mph69%29.21 "Hg10 mi
9:20 PM27 °FClear.7 mph74%29.21 "Hg10 mi
8:50 PM27 °FClear.6 mph74%29.21 "Hg10 mi
8:20 PM28 °FClear.5 mph69%29.21 "Hg10 mi
7:50 PM30 °FPassing clouds.6 mph64%29.21 "HgN/A
7:20 PM30 °FPassing clouds.5 mph69%29.21 "HgN/A
6:50 PM28 °FPassing clouds.6 mph74%29.21 "HgN/A
6:20 PM28 °FPassing clouds.5 mph74%29.21 "HgN/A
Weather by CustomWeather, © 2014

See weather overviewHow to use our weather pages